Location: �perlecques
(50.8057°N, 2.1521°E)
Time: 08:06:11
(UTC+00:00)

BlueWalker 3 - Pass Details

Date: 01 December 2023
Orbit: 485 x 500 km, 53.2° (Epoch: 28 February)

Event Time Altitude Azimuth Distance (km) Brightness Sun altitude
Exits shadow 04:27:34 32° 99° (E) 884 3.7 -28.0°
Drops below altitude 10° 04:29:42 10° 104° (ESE) 1,697 5.5 -27.7°
Sets 04:31:52 0° 106° (ESE) 2,574 6.7 -27.4°
